Погода в Братске

Поиск расширенной информации на нашем сайте:

Полезная информация:

Новости сайта



02.01.2020
Опубликован Долгосрочный прогноз погоды по городам России и ближнего зарубежья на январь 2020 года.
Карты: Прогноз на январь и февраль 2020 года, Сравнение прогнозируемой аномалии приземной температуры воздуха на январь 2020 года по разным моделям.




Погода в Братске - сегодня

Время (UTC), дата Ветер
(°,м/с) 
Видим.   Явления Облачность Т
(°С)
Тd
(°С)
f(%) Тe
(°С)
Pmin
(гПа)
dP
(гПа)
Po
(мм)
O2
(г/м3)
Тmin Tmax R s Состояние
почвы
00 30.11.20 300 (СЗ) н/о    10/0 средняя, верхняя 
[Ac trans|Ci sp]
-15.9 -19 77 -18  1041.5  -0.1  739  318  -17.9      14  равномерный
сухой снег
100% 
03 30.11.20 300 (СЗ) 20000 м    10/1 600 м средняя 
[Sc|Ac As]
-14.5 -17.4 79 -15  1041.8  0.6  740  316           
06 30.11.20 300 (СЗ) 20000 м  в посл. час снег  8/3 300 м средняя, верхняя 
[St|Ac lent|Cc]
-12.1 -15.6 75 -12  1041.2  -0.1  740  313           
09 30.11.20 290 (З) 20000 м    10/1 1000 м средняя, верхняя 
[Sc|Ac lent|Ci fib]
-12.1 -15.2 78 -14  1041.2  740  313           
12 30.11.20 290 (З) н/о    10/0 верхняя 
[Cs]
-12 -15.7 74 -14  1041.8  0.6  740  313    -10.9  0.0     
15 30.11.20 290 (З) н/о    10/0 верхняя 
[Cs]
-11.4 -14.6 77 -13  1040.8  -0.8  740  312           
18 30.11.20 290 (З) н/о    10/0 средняя, верхняя 
[Ac trans|Cs]
-10.9 -14.4 75 -13  1040  -0.7  739  311           
21 30.11.20 290 (З) н/о    10/0 средняя, верхняя 
[Ac trans|Cs]
-12.3 -15.2 79 -12  1039.6  -0.7  739  313           
00 01.12.20 290 (З) н/о  слаб. снег  10/0 средняя 
[As trans]
-12.3 -15.3 78 -14  1039.4  -0.2  738  313  -12.4    0.0  14  равномерный
сухой снег
100% 
03 01.12.20 300 (СЗ) 10 км  слаб. снег  10/1 300 м средняя 
[St|As trans]
-12 -15.4 76 -14  1039.4  0.1  738  313           
06 01.12.20 290 (З) 20000 м  слаб. снег  10/1 300 м средняя, верхняя 
[St|As trans|Cs]
-11.5 -16 69 -15  1039.6  0.3  739  312           
09 01.12.20 290 (З) 20000 м  слаб. снег  8/1 300 м средняя, верхняя 
[St|Ac As|Ci sp]
-11.8 -15.6 73 -14  1039.9  0.2  739  312           
12 01.12.20 300 (СЗ) н/о  слаб. снег  10/1 300 м средняя 
[St|Ac As]
-11.4 -14.7 76 -13  1040.3  0.5  739  312    -11.1  0.5     
15 01.12.20 300 (СЗ) н/о  слаб. снег  10/0 средняя 
[As trans]
-11.1 -14.6 75 -13  1040.4  0.2  739  312           
18 01.12.20 290 (З) н/о  слаб. ливневой снег  10/9 600 м кучево-дожд., средняя 
[Cb cap|As trans]
-10.9 -13.7 80 -13  1041.3  0.8  740  312           
21 01.12.20 300 (СЗ) н/о  ливневой снег  10/9 600 м кучево-дожд., средняя 
[Cb cap|As trans]
-10.7 -13.6 79 -13  1041.7  0.5  740  312           
00 02.12.20 300 (СЗ) н/о  слаб. ливневой снег  10/8 300 м кучево-дожд., средняя, верхняя 
[Cb cap|Ac As|Ci fib]
-11.5 -14.9 76 -13  1043.3  1.3  741  313  -11.6    0.7  17  равномерный
сухой снег
100% 
03 02.12.20 300 (СЗ) 20000 м  {ливн. осадки}  10/3 300 м средняя, верхняя 
[St|Ac lent|Cs]
-12.4 -16.2 73 -12  1044.8  1.2  742  315  -12.5         
06 02.12.20 290 (З) 20000 м  {ливн. осадки}  10/4 300 м средняя, верхняя 
[St|Ac trans|Ci fib]
-9.9 -15.4 64 -12  1044  -0.2  742  312           
09 02.12.20 300 (СЗ) 20000 м  слаб. ливневой снег  10/10 600 м кучево-дожд. 
[Cb cap]
-10.6 -14.8 71 -10  1044.4  0.2  742  312           
12 02.12.20 290 (З) н/о  слаб. ливневой снег  10/10 600 м кучево-дожд. 
[Cb cap]
-11.2 -14.7 75 -13  1044.5  742  313    -9.3  0.0     
15 02.12.20 300 (СЗ) н/о  слаб. ливневой снег  10/8 600 м кучево-дожд., средняя 
[Cb cap|As trans]
-10.7 -14.3 75 -11  1044  -0.4  742  312           
18 02.12.20 270 (З) н/о  слаб. ливневой снег  10/8 600 м кучево-дожд., средняя 
[Cb cap|As trans]
-10.9 -13.9 78 -13  1043.1  -0.9  741  312           
21 02.12.20 290 (З) н/о  слаб. ливневой снег  10/6 600 м кучево-дожд., средняя 
[Cb cap|As trans]
-10.1 -13 79 -10  1041.7  -1.1  740  311           
00 03.12.20 280 (З) н/о  слаб. ливневой снег  10/8 600 м кучево-дожд., средняя 
[Cb cap|As trans]
-10.1 -13.2 78 -10  1041.1  -0.6  740  311  -11.3    0.0  17  равномерный
сухой снег
100% 
Время (UTC), дата Ветер
(°,м/с) 
Видим.   Явления Облачность Т
(°С)
Тd
(°С)
f(%) Тe
(°С)
Pmin
(гПа)
dP
(гПа)
Po
(мм)
O2
(г/м3)
Тmin Tmax R s Состояние
почвы

Для получения пояснительной информации подведите курсор к названию столбца.

ПОГОДА в Братске - архив

Всё, что Вы хотите узнать о погоде в Братске - удобно и подробно!

Выберите нужную дату (начиная с 1 января 2019* года) и нажмите кнопку "Найти".
Будут отображены архивные сводки погоды по пункту Братск, начиная с указанной даты.


Отображать данные в формате CSV (для использования в таблицах Excel)


Внимание! Наш архив погоды предназначен исключительно для личного некоммерческого использования в познавательных целях. Если Вам необходимы официальные справки о состоянии погоды (для производственных, юридических, коммерческих и т.п. целей), обращайтесь в органы Росгидромета.

*Примечание: данная дата относится к архиву по метеостанциям СССР (Россия, СНГ, Балтия).
Архив по метеостанциям Зарубежной Европы и Азии (кроме Китая) хранится 10 дней, по другим регионам земного шара (Китай, Африка, Америка, Австралия, Океания) - 1 день.

Братск - район местоположения метеостанции


Название, широта, долгота, высота метеостанции:
Братск (город) 56.3°ш. 101.8°д. 416 м над ур. моря [Российская Федерация]

Дополнительная информация

В oтличие oт бoльшинства пoгoдных сайтoв мы публикуем пoдрoбную метеoинфoрмацию в детальнoм прoфессиoнальнoм фoрмате.

Характеристики температуры и влажнoсти вoздуха измеряются на высoте 2 м в тени вдали oт зданий и деревьев.
Скoрoсть ветра измеряется на высoте 10 м (на урoвне рoста челoвека скoрoсть ветра ниже в 1.5-2 раза). Если метеoстанция нахoдится в гoрoде или в лесу, тo скoрoсть ветра занижена на 2-4 м/с пo сравнению с oткрытым местoм. Скoрoсть ветра над акватoриями крупных рек и oзёр, а также на вершинах хoлмoв на 2-5 м/с выше, чем в oбычных услoвиях.
Атмoсфернoе давление в разных тoчках местнoсти мoжет значительнo oтличаться oт давления на метеoстанции, в зависимoсти oт услoвий рельефа (при пoдъёме на 10 м давление пoнижается примернo на 1 мм рт.ст.).